Theta_e
352 352 354 349 353 354 355 354 357 354 351 352 353 357 353 351 345 346 346 348 349 348 348 349 347 343 340 340 338 339 339 340 342 342 336 336 342 340 343 345 344 346 346 346
352 357 352 348 350 350 353 351 350 350 350 352 351 353 353 349 346 346 343 346 350 349 348 349 349 345 342 342 341 340 340 339 340 340 338 331 339 341 344 347 346 344 347 353
354 351 349 350 352 354 351 349 346 343 353 352 351 351 351 350 349 349 345 349 351 350 346 350 349 348 344 343 344 345 345 337 338 339 338 334 339 344 344 344 346 345 348 344
351 351 352 352 349 341 344 345 339 341 347 351 349 357 351 345 343 345 348 351 352 351 350 351 349 349 348 346 347 347 348 338 331 338 338 332 341 344 346 346 344 347 347 350
355 350 348 348 345 339 338 340 339 342 349 345 349 344 344 347 345 343 342 345 346 351 351 350 349 346 350 349 349 349 349 348 335 335 336 333 341 344 346 346 345 346 347 347
343 343 347 347 339 339 343 344 345 343 349 353 344 345 345 350 343 339 342 343 342 340 351 351 351 349 351 350 350 349 350 349 349 337 336 339 340 342 344 345 346 344 343 346
344 345 345 345 338 342 338 336 344 350 344 349 340 341 341 341 340 339 339 342 345 346 347 350 351 351 350 353 352 352 351 349 350 347 339 336 343 345 343 342 346 344 343 343
348 349 346 344 341 340 338 339 336 344 341 337 340 341 342 340 340 339 339 341 346 345 343 348 351 352 351 351 348 345 342 353 351 349 343 342 346 342 338 339 344 340 343 343
350 348 345 344 337 338 337 333 337 335 335 336 335 336 338 334 333 334 334 337 345 347 347 347 347 352 352 351 350 349 349 352 355 351 348 340 344 341 341 340 345 339 340 338
346 341 335 341 340 337 334 336 337 333 338 336 333 336 335 335 334 334 333 339 339 347 348 347 347 353 356 355 354 352 351 351 351 354 351 349 345 340 343 341 342 332 336 335
334 329 329 334 338 336 335 336 329 328 330 333 334 332 334 333 332 332 338 341 344 346 348 347 346 350 354 355 355 355 354 352 352 351 350 351 348 342 344 345 338 336 334 335
330 327 327 329 330 332 335 332 330 328 329 328 328 329 334 333 332 339 342 341 347 348 346 344 341 348 351 352 354 353 353 353 352 350 351 349 346 345 345 343 337 337 332 332
329 328 327 327 328 328 331 333 332 328 327 329 331 330 333 334 336 339 346 352 350 347 346 343 343 344 346 348 348 348 349 349 352 352 350 350 347 345 343 339 338 340 332 331
329 326 326 325 327 329 332 332 331 330 329 329 328 330 330 337 338 340 346 349 349 348 347 348 348 347 345 348 348 347 345 343 346 349 350 351 347 342 343 343 340 339 333 331
330 332 332 329 331 332 333 334 334 332 331 332 330 332 339 340 340 341 340 339 342 351 350 350 349 346 349 348 348 345 341 342 343 348 349 350 347 340 343 342 340 338 332 334
332 335 338 337 336 336 336 334 334 333 333 332 332 334 337 338 339 340 338 338 338 343 350 350 348 343 345 347 345 344 342 341 342 345 348 343 345 338 338 333 339 340 340 341
331 335 337 337 337 336 335 334 334 333 334 333 332 333 337 338 339 340 345 344 342 342 348 348 347 345 348 347 346 344 340 339 340 342 342 344 344 343 340 333 340 339 340 339
331 334 336 334 337 339 334 333 333 337 335 334 334 337 338 338 341 342 342 340 339 339 338 339 345 348 348 346 344 344 341 338 338 339 340 342 343 341 342 340 339 338 338 337
330 332 334 336 336 335 336 335 337 338 339 339 338 338 339 337 337 342 338 338 339 339 337 338 341 348 345 343 343 343 340 337 336 336 337 338 338 337 338 338 337 336 334 332
334 335 338 338 341 340 337 335 336 336 337 339 339 337 337 335 335 337 334 333 332 335 339 340 343 345 346 344 343 343 340 338 336 335 334 334 336 336 335 334 332 332 332 333
340 342 337 338 340 338 338 338 336 339 342 339 336 335 335 334 335 334 332 332 333 337 339 339 342 345 346 345 343 341 340 339 337 336 334 333 333 333 333 333 333 333 332 331
338 338 337 340 343 344 339 339 342 340 337 337 335 334 333 333 333 333 332 334 333 337 338 339 344 346 344 343 341 340 339 339 336 334 334 334 333 333 332 333 333 331 331 330
338 339 340 341 340 342 338 337 336 336 336 336 335 334 332 333 334 334 334 334 333 332 338 339 344 340 343 343 342 341 340 337 334 334 332 332 333 332 332 331 333 331 331 330
332 333 335 337 338 339 338 338 336 334 333 333 332 333 333 333 334 333 334 334 332 339 340 341 342 337 336 342 343 340 339 336 337 335 333 333 333 332 333 331 328 331 329 328
330 329 332 334 336 332 332 331 331 331 330 331 331 332 333 333 334 335 334 334 337 340 340 341 341 339 330 338 340 340 337 337 337 335 331 331 329 328 328 328 325 323 324 323
329 327 329 330 332 334 332 330 330 331 331 331 331 331 331 331 331 332 334 334 336 338 337 333 336 336 339 339 339 339 338 337 337 335 330 330 328 325 323 324 325 326 325 326
Wind_Speed
5 6 7 6 15 15 10 6 6 8 13 2 3 14 17 13 7 14 25 23 17 20 24 27 25 26 28 29 27 28 27 24 23 21 21 26 32 29 25 23 22 19 17 15
3 6 12 2 19 11 11 10 6 5 1 8 4 8 14 22 26 19 32 33 26 28 26 33 29 28 32 34 32 30 29 29 28 27 21 23 26 24 24 18 23 21 21 15
5 9 16 11 14 17 14 4 8 5 13 15 5 2 8 17 23 30 31 34 29 39 26 31 33 33 34 36 35 32 25 30 32 29 23 21 23 20 17 21 20 25 23 22
5 10 13 16 5 4 4 6 6 8 4 2 7 1 6 5 5 8 24 43 41 38 22 32 38 37 40 38 34 30 23 24 29 31 28 25 27 25 22 22 23 27 30 25
7 8 7 6 1 3 7 5 6 9 15 8 4 5 5 4 5 7 14 19 14 11 31 37 42 28 34 37 37 34 25 25 26 32 30 26 29 24 18 21 19 18 31 27
6 12 4 7 5 8 7 9 8 5 7 2 8 5 4 5 7 5 12 10 4 6 5 24 34 22 33 33 30 35 28 30 28 30 32 26 26 23 19 13 11 12 17 20
6 6 5 14 6 2 10 7 4 4 1 6 5 6 7 8 8 8 8 10 9 6 12 22 13 30 19 32 31 26 31 35 34 32 36 32 33 24 16 21 20 18 19 21
4 7 2 9 4 1 7 2 3 3 4 4 4 6 5 9 16 15 12 14 12 10 9 21 19 10 28 36 29 27 40 43 37 40 38 40 34 31 25 30 27 32 22 16
4 6 8 9 4 2 6 5 6 2 5 5 3 6 6 9 7 8 8 15 17 15 13 12 12 11 8 19 23 29 32 39 40 47 41 48 43 28 18 31 35 38 35 26
5 5 5 4 6 8 6 4 6 6 3 5 4 3 6 6 7 7 7 16 16 15 15 13 11 9 5 7 13 23 24 29 36 44 39 41 38 25 22 28 28 15 20 19
6 3 11 6 1 3 2 3 4 1 2 1 2 5 8 8 7 6 13 18 18 17 14 9 5 3 4 5 5 9 15 20 26 33 35 37 34 26 22 30 33 12 18 14
5 2 5 11 10 8 5 4 4 5 7 3 5 5 8 8 6 22 19 16 18 12 8 4 3 5 9 10 11 10 10 14 21 24 27 33 32 28 31 35 26 20 12 13
4 4 5 11 8 13 6 4 3 3 2 4 3 6 4 6 11 18 23 22 14 8 3 3 5 7 8 12 16 17 20 20 19 19 24 26 12 26 29 30 30 27 17 20
7 2 5 6 9 6 8 10 10 3 2 4 5 7 8 10 11 15 18 16 11 7 3 1 6 11 9 11 14 18 19 15 17 21 21 25 19 13 24 33 28 24 22 22
5 4 5 8 9 9 10 10 10 8 9 5 8 4 6 7 8 13 13 13 6 10 7 4 5 9 7 13 18 18 16 13 14 15 19 23 20 14 22 27 21 21 26 22
3 4 5 6 9 9 11 13 13 12 13 7 5 8 8 14 13 12 11 11 12 7 7 5 5 9 8 11 17 17 16 9 11 14 19 16 26 23 23 27 34 28 19 19
6 3 3 5 6 8 8 10 12 14 8 5 3 4 6 7 9 12 16 17 15 16 4 7 10 6 10 15 14 12 8 9 9 11 12 12 14 20 16 32 26 23 22 20
6 3 3 6 4 5 9 9 13 5 3 9 9 8 11 12 15 14 11 10 9 10 13 13 11 11 14 14 12 10 7 8 6 8 12 14 13 15 17 16 17 18 15 14
11 4 2 3 4 7 6 6 5 4 4 7 8 7 14 13 9 10 8 7 8 8 13 12 10 15 14 12 11 7 7 3 2 3 4 8 10 11 12 12 12 11 10 11
6 5 5 2 4 6 6 12 3 5 2 7 10 7 8 8 2 4 6 11 15 11 4 8 7 15 13 12 13 9 6 5 4 3 5 6 7 6 8 11 11 14 12 9
5 4 5 4 6 6 4 6 6 3 5 5 10 8 7 1 4 3 6 10 15 6 8 10 12 15 13 11 14 9 9 9 6 5 6 7 9 9 11 12 12 12 12 12
4 3 4 3 3 5 6 5 1 6 9 8 6 2 3 7 10 8 7 5 8 11 9 9 12 9 13 15 13 8 12 10 9 8 10 9 9 9 11 14 14 15 15 14
4 2 3 2 5 7 5 9 9 4 2 2 2 1 6 10 9 7 6 8 13 18 11 9 10 5 18 12 10 12 12 13 12 12 12 11 12 10 11 12 16 16 15 18
8 16 3 6 6 5 12 11 11 11 5 4 5 6 8 12 14 17 12 8 9 10 10 10 13 12 17 14 14 14 13 15 15 14 14 14 14 16 15 14 14 16 18 20
6 12 8 6 2 5 8 9 11 11 10 8 7 8 11 15 15 11 11 9 10 13 13 11 14 14 16 14 17 17 17 19 19 16 15 16 15 16 17 16 12 15 17 17
13 6 4 7 15 4 1 4 8 7 7 8 10 16 20 22 23 21 18 13 13 14 14 11 15 13 13 14 17 17 20 21 23 21 19 19 17 17 17 18 18 15 12 13
Wind_Direction
16 55 259 118 119 173 241 248 219 247 225 213 72 169 196 177 72 348 288 276 263 216 194 196 192 187 197 196 201 203 210 216 221 225 220 208 209 205 201 213 226 235 237 238
350 248 260 275 151 194 227 222 245 219 154 168 207 182 185 161 174 189 228 242 241 200 199 199 194 194 199 198 203 208 213 214 217 224 226 209 198 202 211 210 217 230 235 223
170 255 307 280 255 208 243 311 301 304 161 192 148 14 129 198 197 198 222 229 219 193 202 198 188 197 203 206 208 212 214 214 218 223 224 219 200 204 213 216 224 231 226 243
257 269 269 285 0 41 279 222 304 317 107 221 134 237 312 248 325 202 231 218 202 195 206 204 193 199 206 208 214 217 220 218 217 219 219 209 192 200 218 235 238 244 226 222
271 266 327 309 336 329 253 325 281 283 61 352 204 101 260 59 297 275 80 68 65 176 197 201 201 233 197 209 217 217 223 220 220 220 218 207 201 204 223 239 249 237 227 231
265 293 261 285 321 258 293 293 292 56 94 292 210 118 257 182 195 108 96 85 19 348 152 221 231 229 199 217 221 213 233 224 226 218 215 207 207 213 222 247 237 243 246 245
328 267 264 276 301 343 344 351 23 48 263 211 206 167 211 152 120 125 158 165 155 113 65 56 220 210 190 181 207 219 226 238 233 215 207 199 215 189 199 229 225 234 234 238
329 324 170 214 206 230 280 293 119 282 237 289 226 140 222 145 153 169 179 186 158 121 80 59 76 194 194 199 232 240 225 247 233 222 205 203 198 201 253 243 230 231 223 241
210 267 284 244 119 121 316 347 253 247 284 76 103 42 62 108 118 118 120 92 119 118 104 84 60 95 191 222 241 236 217 231 235 228 213 207 213 226 255 240 227 252 244 250
226 289 321 155 184 234 176 246 3 355 9 344 343 113 171 158 163 163 117 108 98 109 100 96 78 81 106 185 221 232 232 236 231 228 226 216 213 223 257 227 227 241 231 243
243 36 302 2 272 2 155 300 31 87 102 185 8 294 181 174 167 166 119 113 104 101 100 98 87 91 110 96 168 219 235 232 232 237 238 227 223 227 241 223 219 252 253 227
0 275 290 278 288 282 229 98 88 119 297 284 146 284 167 181 158 116 116 104 113 113 104 68 341 266 258 268 272 260 255 244 247 251 240 230 231 234 225 218 222 239 252 222
0 316 354 342 346 359 19 331 177 224 123 259 138 265 168 58 98 108 114 113 117 122 120 350 334 338 304 279 286 288 285 279 261 247 251 254 249 206 207 231 235 233 230 227
129 225 194 216 246 292 321 329 336 2 59 257 249 290 347 67 84 79 104 129 138 155 193 280 333 334 319 296 296 298 296 276 259 249 248 245 234 219 240 231 225 228 232 221
142 195 240 265 280 301 301 291 287 280 253 254 259 310 108 86 86 70 53 30 39 185 184 168 282 309 287 299 306 318 323 290 280 241 240 246 246 234 236 234 238 237 225 238
234 252 247 270 271 315 327 320 317 303 296 277 61 108 135 94 87 74 51 14 349 62 150 226 291 325 309 283 292 312 322 303 279 234 225 234 232 246 216 276 244 232 241 245
326 321 351 283 316 323 317 278 285 288 271 130 97 163 116 77 78 67 72 61 47 43 348 314 307 300 272 281 292 308 327 322 280 256 249 258 255 226 205 209 228 245 231 214
265 241 189 248 280 263 250 269 289 326 359 54 75 88 94 83 72 75 66 51 13 351 339 319 292 262 253 279 279 295 331 328 319 246 242 241 232 229 227 211 212 212 218 227
235 226 243 183 229 272 325 280 343 71 3 68 83 71 77 63 49 90 59 20 323 296 301 312 299 249 271 255 262 255 290 288 229 270 243 238 241 228 211 202 194 187 178 175
324 181 145 205 251 265 249 278 216 119 235 97 94 79 62 53 46 243 358 345 328 311 309 319 283 272 259 230 243 246 256 249 236 219 262 244 200 188 183 173 168 161 170 171
332 327 222 243 244 252 235 85 107 212 214 65 85 68 46 111 225 243 325 327 315 288 282 284 266 263 260 245 246 251 243 230 217 220 222 202 193 191 177 169 176 176 176 191
275 272 258 253 272 296 60 53 75 192 183 200 132 144 285 284 292 273 297 306 328 286 283 291 259 245 257 251 247 250 219 227 224 214 221 192 175 170 182 194 190 189 196 197
336 284 240 205 228 202 164 136 106 131 74 114 142 288 306 274 271 286 262 292 300 305 268 277 235 246 222 230 251 237 220 216 205 203 205 204 184 197 194 205 196 194 208 208
315 326 326 8 320 353 2 19 53 70 65 23 359 341 313 303 290 284 263 274 283 260 257 258 247 258 252 253 249 225 215 215 211 195 193 195 189 195 200 198 226 224 212 211
290 320 295 299 341 57 10 27 19 10 5 348 330 320 310 313 287 280 267 248 252 252 260 251 268 280 238 240 244 223 212 210 209 213 220 214 215 218 213 216 220 211 221 213
271 251 297 273 294 240 128 342 334 321 316 307 304 299 287 290 292 294 287 255 247 254 276 256 250 260 238 231 241 227 212 211 211 213 218 217 218 210 213 218 222 220 216 223